Location: Unspecified
(35.6961°N, 0.0000°E)
Time: 18:34:56
(UTC+00:00)

Vanguard 3 - Pass Details

Date: 28 May 2019
Orbit: 508 x 3263 km, 33.3° (Epoch: 16 June)

Event Time Altitude Azimuth Distance (km) Brightness Sun altitude
Rises 00:18:30 0° 278° (W) 4,254 10.9 -32.7°
Reaches altitude 10° 00:20:56 10° 274° (W) 3,569 10.4 -32.6°
Enters shadow 00:28:13 50° 231° (SW) 2,379 9.1 -32.4°
Maximum altitude 00:30:22 55° 200° (SSW) 2,437 - -32.4°
Exits shadow 00:36:32 36° 146° (SE) 3,448 9.9 -32.2°
Drops below altitude 10° 00:46:20 10° 129° (SE) 5,807 11.2 -31.7°
Sets 00:51:36 0° 126° (SE) 7,054 11.7 -31.5°
